Regional Weather Roundup
Issued by NWS

Home | Current Version | Previous Version | Graphics & Text | Print | Product List | Glossary On
Versions: 1 2 3 4 5 6 7 8 9 10 11 12 13 14 15 16 17 18 19 20 21 22 23 24 25 26 27 28 29 30 31 32 33 34 35 36 37 38 39 40 41 42 43 44 45 46 47 48 49 50
000
ASUS43 KDMX 230101
RWRIA

WEATHER ROUNDUP FOR IOWA
NATIONAL WEATHER SERVICE DES MOINES IA
700 PM CST SUN JAN 22 2017

NOTE: "FAIR" INDICATES FEW OR NO CLOUDS BELOW 12,000 FEET WITH NO
SIGNIFICANT WEATHER AND/OR OBSTRUCTIONS TO VISIBILITY.

* - THESE STATIONS ARE NOT NWS STATIONS...THUS NOT UNDER NWS
QUALITY CONTROL.  THEY ALSO DO NOT REPORT WEATHER SUCH
AS PRECIPITATION OR FOG.

IAZ001>003-012>014-020>022-031>034-043>046-230200-
   NORTHWEST IOWA

CITY           SKY/WX    TMP DP  RH WIND       PRES   REMARKS
CARROLL *      CLOUDY    36  36 100 NW13      29.81S WCI  27
CHEROKEE *     CLOUDY    32  31  96 NW10G17   29.85R FOG     WCI  23
DENISON *      CLOUDY    32  32 100 NW10      29.83R FOG     WCI  24
LE MARS *      CLOUDY    32  28  86 NW15G21   29.88R WCI  22
ORANGE CITY *  CLOUDY    28  28 100 NW17G23   29.85R FOG     WCI  16
SHELDON *      CLOUDY    30  30 100 NW15G22   29.82R WCI  19
SIOUX CITY     PTCLDY    33  30  88 N13       29.87R WCI  24
SPENCER          N/A    N/A N/A N/A MISG      29.82R
STORM LAKE *   CLOUDY    32  32 100 NW10      29.82R FOG     WCI  24
$$

IAZ055>058-069>071-079>083-090>094-230200-
   SOUTHWEST IOWA

CITY           SKY/WX    TMP DP  RH WIND       PRES   REMARKS
ATLANTIC *     CLOUDY    36  34  93 NW9G16    29.83R WCI  29
AUDUBON *      CLOUDY    36  32  87 NW7       29.82R WCI  30
CLARINDA *     CLOUDY    36  36 100 N6        29.86R WCI  31
COUNCIL BLFS * CLEAR     34  34 100 NW7       29.85R WCI  28
CRESTON *      CLOUDY    36  36 100 NW12      29.81R WCI  27
HARLAN  *      CLOUDY    34  34 100 NW10      29.87R WCI  26
LAMONI         CLOUDY    37  35  92 NW10      29.78R WCI  30
RED OAK *      CLEAR     34  34 100 NW7       29.85R WCI  28
SHENANDOAH *   CLEAR     34  32  93 CALM      29.86R
$$

IAZ047>049-059>061-072>074-084-230200-
   CENTRAL IOWA

CITY           SKY/WX    TMP DP  RH WIND       PRES   REMARKS
AMES           CLOUDY    37  37 100 NW10      29.79R WCI  30
ANKENY *       CLOUDY    37  36  93 NW10      29.80S WCI  30
BOONE *        CLOUDY    37  37 100 NW10      29.78S FOG     WCI  30
CHARITON *     CLOUDY    36  36 100 NW15      29.77S FOG     WCI  26
DES MOINES     CLOUDY    38  36  92 N12       29.79R WCI  30
GRINNELL*      CLOUDY    36  35  96 NW7       29.76R FOG     WCI  30
KNOXVILLE *    CLOUDY    37  36  93 NW12      29.77R FOG     WCI  30
MARSHALLTOWN   CLOUDY    37  36  96 NW9       29.77R WCI  30
NEWTON *       CLOUDY    37  36  93 NW12      29.77R WCI  30
PELLA *        CLOUDY    37  36  95 NW10      29.79R FOG     WCI  30
PERRY *        CLOUDY    37  36  94 NW10      29.81R WCI  30
$$

IAZ004>006-015-016-023>025-035-036-230200-
   NORTH CENTRAL IOWA

CITY           SKY/WX    TMP DP  RH WIND       PRES   REMARKS
ALGONA *       CLOUDY    36  36 100 NW9       29.80R FOG     WCI  29
CLARION *      CLOUDY    36  36 100 NW7       29.79S FOG     WCI  30
ESTHERVILLE    CLOUDY    32  32 100 W13       29.79R FOG     WCI  22
FORT DODGE *   CLOUDY    36  34  93 NW5       29.80S WCI  32
MASON CITY     FOG       34  34 100 NW8       29.78S VSB 1   WCI  27
FOREST CITY *  FOG       34  34 100 NW7       29.78R VSB 1/2 WCI  28
WEBSTER CITY * CLOUDY    37 N/A N/A NW10      29.77S WCI  30
IOWA FALLS *   CLOUDY    37  35  94 NW9       29.78S WCI  30
$$

IAZ007>011-017>019-026>030-037>042-050>054-066-230200-
   NORTHEAST IOWA

CITY           SKY/WX    TMP DP  RH WIND       PRES   REMARKS
CEDAR RAPIDS   CLOUDY    36  34  92 NW13      29.72S WCI  27
CHARLES CITY * CLOUDY    34  34 100 NW9       29.76S WCI  26
CLINTON *      CLEAR     34  33  96 NW9       29.70R FOG     WCI  27
DECORAH *      CLOUDY    36  34  93 NW6       29.73S FOG     WCI  31
DUBUQUE        CLOUDY    36  35  96 N13       29.70S FOG     WCI  27
MONTICELLO *   CLOUDY    37  36  93 NW10      29.71S WCI  30
OELWEIN *      CLOUDY    34  34 100 NW10      29.75R FOG     WCI  26
WATERLOO       CLOUDY    35  33  92 NW9       29.76R WCI  28
$$

IAZ064-065-067-068-078-230200-
   EAST CENTRAL IOWA

CITY           SKY/WX    TMP DP  RH WIND       PRES   REMARKS
DAVENPORT      CLEAR     34  32  92 NW7       29.70R FOG     WCI  28
IOWA CITY      CLOUDY    39  35  86 NW12      29.74R WCI  32
MUSCATINE *    CLOUDY    36  34  93 NW7       29.73R WCI  30
QUAD CITIES    CLOUDY    38  34  85 NW7       29.69R WCI  33
$$

IAZ062-063-075>077-085>089-095>099-230200-
   SOUTHEAST IOWA

CITY           SKY/WX    TMP DP  RH WIND       PRES   REMARKS
BURLINGTON     CLOUDY    36  34  92 NW8       29.71R WCI  30
FAIRFIELD *    CLOUDY    36  36 100 NW6       29.74R WCI  31
FORT MADISON * CLOUDY    36  34  93 NW8       29.72S WCI  29
KEOKUK *       CLOUDY    36 N/A N/A N13       29.71S WCI  27
OSKALOOSA *    CLOUDY    37  35  95 NW13      29.76R FOG     WCI  28
CENTERVILLE *  CLOUDY    36  36 100 NW10      29.78R WCI  28
OTTUMWA        CLOUDY    38  35  89 NW13      29.74R WCI  30
WASHINGTON *   CLOUDY    36  36 100 NW9       29.74S WCI  29
$$

ABBREVIATIONS USED IN REMARKS
   TC - TEMPERATURES IN CELSIUS
  WCI - WIND CHILL INDEX
   HX - HEAT INDEX
  VSB - VISIBILITY
$$




USA.gov is the U.S. government's official web portal to all federal, state and local government web resources and services.